Zurück zum Katalog

FENGYUN 1C DEB

LostSSO
NORAD 31340·DEBRIS·🇨🇳 China

Gestartet May 10, 1999 von Taiyuan Satellite Launch Center

Loading…

Nächste Überflüge (nächste 24 Stunden)

TLE

VeraltetSource: Space-Track

Epoche: Sep 10, 2022, 09:54 UTC

1 31340U 99025BQU 22253.41262889  .00002471  00000-0  11755-2 0  9995
2 31340  98.9648 322.4618 0041877 228.9152 130.8403 14.19874503793560

Verfolge FENGYUN 1C DEB in Echtzeit mit AllMySat

Download on the App Store